Weather History for KNQX - October, 2012

Change the Weather History Date:

Wednesday, October 17, 2012

  Actual Average (KEYW) Record (KEYW)
Temperature  
Mean Temperature 82 °F 80 °F  
Max Temperature 87 °F 84 °F 89 °F (2009)
Min Temperature 77 °F 76 °F 67 °F (1977)
Degree Days  
Heating Degree Days 0 0  
Month to date heating degree days 0  
Since 1 July heating degree days 0  
Cooling Degree Days 17 15  
Month to date cooling degree days 276  
Year to date cooling degree days 4011  
Growing Degree Days 32 (Base 50)    
Moisture  
Dew Point 73 °F    
Average Humidity 78    
Maximum Humidity 89    
Minimum Humidity 63    
Precipitation  
Precipitation 0.12 in 0.15 in 6.91 in (2011)
Month to date precipitation 3.05  
Year to date precipitation 33.43  
Snow  
Snow 0.00 in - - ()
Month to date snowfall  
Since 1 July snowfall  
Since 1 September snowfall  
Snow Depth -    
Sea Level Pressure  
Sea Level Pressure 29.84 in    
Wind  
Wind Speed 5 mph (East)    
Max Wind Speed 18 mph    
Max Gust Speed 25 mph    
Visibility 9 miles    
Events Rain , Thunderstorm    
T = Trace of Precipitation, MM = Missing Value Source: NWS Daily Summary

Daily Weather History Graph

Daily Weather History Graph

Search for Another Location

Airport or City:

Trip Planner

Search our weather history database for the weather conditions in past years. The results will help you decide how hot, cold, wet, or windy it might be!

Date:

Astronomy

Oct. 17, 2012 Rise Set
Actual Time 7:25 AM EDT 6:57 PM EDT
Civil Twilight 7:02 AM EDT 7:20 PM EDT
Nautical Twilight 6:36 AM EDT 7:47 PM EDT
Astronomical Twilight 6:09 AM EDT 8:13 PM EDT
Moon 9:40 AM EDT (10/17) 8:52 PM EDT (10/17)
Length of Visible Light 12h 17m
Length of Day
11h 31m
Waxing Crescent, 7% of the Moon is Illuminated
Oct 17
Waxing Crescent
Oct 21
First Quarter
Oct 29
Full
Nov 6
Last Quarter
Nov 13
New

Hourly Weather History & Observations

Time (EDT) Temp. Heat Index Dew Point Humidity Pressure Visibility Wind Dir Wind Speed Gust Speed Precip Events Conditions
12:53 AM 80.1 °F 83.8 °F 72.0 °F 76% 29.84 in 10.0 mi NE 3.5 mph - N/A   Clear
1:53 AM 80.1 °F 83.8 °F 72.0 °F 76% 29.83 in 10.0 mi ENE 3.5 mph - N/A   Clear
2:53 AM 80.1 °F 83.8 °F 72.0 °F 76% 29.82 in 10.0 mi NE 3.5 mph - N/A   Clear
3:53 AM 80.1 °F 83.8 °F 72.0 °F 76% 29.81 in 10.0 mi Calm Calm - N/A   Clear
4:53 AM 79.0 °F - 72.0 °F 79% 29.83 in 10.0 mi NE 3.5 mph - N/A   Clear
5:53 AM 79.0 °F - 73.0 °F 82% 29.84 in 10.0 mi NNE 3.5 mph - N/A   Clear
6:11 AM 78.8 °F - 73.4 °F 83% 29.85 in 10.0 mi NE 3.5 mph - N/A   Clear
6:53 AM 79.0 °F - 73.0 °F 82% 29.85 in 10.0 mi NNE 3.5 mph - N/A   Clear
7:53 AM 80.1 °F 84.2 °F 73.0 °F 79% 29.85 in 10.0 mi Calm Calm - N/A   Scattered Clouds
8:53 AM 82.9 °F 88.0 °F 72.0 °F 69% 29.86 in 10.0 mi ESE 6.9 mph - N/A   Scattered Clouds
9:53 AM 84.0 °F 89.0 °F 71.1 °F 65% 29.88 in 10.0 mi SE 9.2 mph - N/A   Mostly Cloudy
10:53 AM 87.1 °F 94.5 °F 73.0 °F 63% 29.88 in 10.0 mi East 10.4 mph - N/A   Mostly Cloudy
11:53 AM 86.0 °F 93.0 °F 73.0 °F 65% 29.88 in 10.0 mi SE 10.4 mph - N/A   Mostly Cloudy
12:53 PM 82.0 °F 86.7 °F 72.0 °F 71% 29.87 in 10.0 mi SE 4.6 mph - N/A   Mostly Cloudy
1:28 PM 78.8 °F - 73.4 °F 83% 29.86 in 5.0 mi South 18.4 mph 25.3 mph 0.00 in Rain Light Rain
1:38 PM 77.0 °F - 73.4 °F 89% 29.86 in 2.0 mi SSE 12.7 mph 23.0 mph 0.06 in Rain , Thunderstorm Light Thunderstorms and Rain
1:53 PM 77.0 °F - 72.0 °F 84% 29.87 in 6.0 mi SE 10.4 mph - 0.10 in Rain , Thunderstorm Light Thunderstorms and Rain
2:02 PM 77.0 °F - 73.4 °F 89% 29.86 in 7.0 mi ESE 6.9 mph - 0.01 in Rain Light Rain
2:13 PM 77.0 °F - 71.6 °F 83% 29.85 in 10.0 mi East 4.6 mph - 0.02 in   Overcast
2:53 PM 78.1 °F - 73.0 °F 84% 29.84 in 10.0 mi East 4.6 mph - 0.02 in   Overcast
3:53 PM 82.9 °F 88.8 °F 73.0 °F 72% 29.82 in 10.0 mi East 6.9 mph - N/A   Mostly Cloudy
4:23 PM 82.4 °F 88.2 °F 73.4 °F 74% 29.81 in 10.0 mi East 5.8 mph - N/A   Overcast
4:53 PM 81.0 °F 85.8 °F 73.0 °F 77% 29.81 in 10.0 mi East 5.8 mph - N/A   Overcast
5:31 PM 82.4 °F 89.5 °F 75.2 °F 79% 29.81 in 10.0 mi Calm Calm - N/A   Mostly Cloudy
5:53 PM 82.0 °F 87.9 °F 73.9 °F 76% 29.81 in 10.0 mi NNE 3.5 mph - N/A   Mostly Cloudy
6:53 PM 81.0 °F 86.2 °F 73.9 °F 79% 29.82 in 10.0 mi East 4.6 mph - N/A   Mostly Cloudy
7:53 PM 81.0 °F 86.2 °F 73.9 °F 79% 29.81 in 10.0 mi East 8.1 mph - N/A   Mostly Cloudy
8:53 PM 82.0 °F 88.6 °F 75.0 °F 79% 29.84 in 10.0 mi ENE 4.6 mph - N/A   Overcast
9:53 PM 81.0 °F 86.7 °F 75.0 °F 82% 29.85 in 10.0 mi ESE 4.6 mph - N/A   Overcast
10:53 PM 81.0 °F 86.2 °F 73.9 °F 79% 29.85 in 10.0 mi ESE 5.8 mph - N/A Thunderstorm Thunderstorm
11:10 PM 80.6 °F 85.4 °F 73.4 °F 79% 29.86 in 10.0 mi ESE 4.6 mph - N/A   Mostly Cloudy
11:53 PM 81.0 °F 86.2 °F 73.9 °F 79% 29.86 in 10.0 mi SE 4.6 mph - N/A   Partly Cloudy